Regional Weather Roundup
Issued by NWS Little Rock, AR

Home | Current Version | Previous Version | Text Only | Print | Product List | Glossary Off
Versions: 1 2 3 4 5 6 7 8 9 10 11 12 13 14 15 16 17 18 19 20 21 22 23 24 25 26 27 28 29 30 31 32 33 34 35 36 37 38 39 40 41 42 43 44 45 46 47 48

000
ASUS44 KLZK 021605
RWRLZK

WEATHER ROUNDUP FOR ARKANSAS
NATIONAL WEATHER SERVICE LITTLE ROCK AR
1100 AM CDT TUE JUN 02 2015

NOTE: "FAIR" INDICATES FEW OR NO CLOUDS BELOW 12,000 FEET WITH NO
SIGNIFICANT WEATHER AND/OR OBSTRUCTIONS TO VISIBILITY.

ARZ001-003-010-029-021700-
NORTHWEST ARKANSAS

CITY           SKY/WX    TMP DP  RH WIND       PRES   REMARKS
FAYETTEVILLE   CLOUDY    72  64  76 S8        30.08F
FORT SMITH     PTSUNNY   77  65  66 NE8       30.06S
HARRISON       CLOUDY    64  61  90 SE7       30.11F
BENTONVILLE    CLOUDY    73  63  68 SW6       30.08F
ROGERS         PTSUNNY   74  64  71 S6        30.09S
SILOAM SPGS    CLOUDY    73  61  64 S7        30.08F
HIGHFILL       CLOUDY    73  66  78 S7        30.07F
SPRINGDALE     PTSUNNY   73  64  73 SW7       30.10F
$$

ARZ004-005-016-021700-
NORTH CENTRAL ARKANSAS

CITY           SKY/WX    TMP DP  RH WIND       PRES   REMARKS
BATESVILLE     CLOUDY    68  59  73 NE6       30.11S
FLIPPIN        CLOUDY    64  57  77 E5        30.10S
MTN HOME       CLOUDY    64  58  80 CALM      30.10F
$$

ARZ040-041-021700-
WEST CENTRAL ARKANSAS

CITY           SKY/WX    TMP DP  RH WIND       PRES   REMARKS
MENA           CLOUDY    73  64  73 CALM      30.09S
MOUNT IDA      CLOUDY    72  63  73 CALM      30.07F
$$

ARZ009-017-025-026-028-021700-
NORTHEAST ARKANSAS

CITY           SKY/WX    TMP DP  RH WIND       PRES   REMARKS
CORNING          N/A     64  57  77 NE8       30.13S
JONESBORO      CLOUDY    68  59  73 NE8       30.10F
NEWPORT        CLOUDY    69  60  73 NE7       30.12F
WALNUT RIDGE   MOSUNNY   68  55  64 NE10      30.11F
BLYTHEVILLE    CLOUDY    68  59  73 N9        30.11F
NW BLYTHEVILLE CLOUDY    66  57  72 N7        30.11F
$$

ARZ022-023-033-042-044-021700-
CENTRAL ARKANSAS

CITY           SKY/WX    TMP DP  RH WIND       PRES   REMARKS
LITTLE ROCK    PTSUNNY   72  60  66 VRB5      30.10S
N LITTLE ROCK  PTSUNNY   72  64  77 E3        30.10F
JACKSONVILLE   MOSUNNY   72  62  71 VRB2      30.09F
SEARCY         PTSUNNY   70  60  70 CALM      30.11F
HOT SPRINGS    CLOUDY    70  62  76 CALM      30.10F
RUSSELLVILLE   CLOUDY    70  63  78 CALM      30.09S
$$

ARZ036-021700-
EAST ARKANSAS

CITY           SKY/WX    TMP DP  RH WIND       PRES   REMARKS
WEST MEMPHIS   CLOUDY    71  61  70 NE7       30.08F
$$

ARZ050-053-066-070-073-021700-
SOUTHWEST ARKANSAS

CITY           SKY/WX    TMP DP  RH WIND       PRES   REMARKS
ARKADELPHIA    CLOUDY    75  65  71 VRB3      30.09F
CAMDEN         SUNNY     77  63  61 CALM      30.08F
TEXARKANA      MOSUNNY   77  66  68 E5        30.07F
EL DORADO      SUNNY     76  62  62 VRB5      30.08F
DE QUEEN       CLOUDY    74  67  78 CALM      30.05F
$$

ARZ056-057-069-021700-
SOUTHEAST ARKANSAS

CITY           SKY/WX    TMP DP  RH WIND       PRES   REMARKS
PINE BLUFF     PTSUNNY   73  61  65 VRB3      30.09F
STUTTGART      PTSUNNY   70  61  73 MISG      30.10F
MONTICELLO     MOSUNNY   75  63  66 VRB6      30.08F

$$





USA.gov is the U.S. government's official web portal to all federal, state and local government web resources and services.